Regional Weather Roundup
Issued by NWS Albany, NY

Home | Current Version | Previous Version | Text Only | Print | Product List | Glossary On
Versions: 1 2 3 4 5 6 7 8 9 10 11 12 13 14 15 16 17 18 19 20 21 22 23 24 25 26 27 28 29 30 31 32 33 34 35 36 37 38 39 40 41 42 43 44 45 46 47 48 49 50
000
ASUS41 KALY 191510
RWRALY

NEW YORK STATE HOURLY WEATHER ROUNDUP
NATIONAL WEATHER SERVICE ALBANY NY
1000 AM EST THU JAN 19 2017

NOTE: "FAIR" INDICATES FEW OR NO CLOUDS BELOW 12,000 FEET WITH NO
SIGNIFICANT WEATHER AND/OR NO OBSTRUCTIONS TO VISIBILITY.

NYZ032-033-038>043-046>054-057>066-NYZ062>081-082-084-191600-
EAST


CITY           SKY/WX    TMP DP  RH WIND       PRES   REMARKS
ALBANY         CLOUDY    40  35  83 SW5       30.05R
GLENS FALLS    CLOUDY    37  34  89 S3        30.02R FOG
POUGHKEEPSIE   CLOUDY    38  36  92 CALM      30.05
NEWBURGH       MOSUNNY   36  36 100 W6        30.05S WCI  31
MONTGOMERY     MOSUNNY   45  37  73 VRB3      30.03
WHITE PLAINS   MOSUNNY   43  36  76 NW10      30.03
ISLIP          MOSUNNY   44  37  76 NW8       30.04
NEW YORK CITY  MOSUNNY   45  36  70 NW10      30.06R
CENTRAL PARK   SUNNY     43  36  76 VRB5      30.08R
$$

NYZ005>009-017-018-044>046-055-056-191600-
CENTRAL


CITY           SKY/WX    TMP DP  RH WIND       PRES   REMARKS
FULTON         LGT RAIN  36  35  96 SW6       30.08R FOG     WCI  31
SYRACUSE       DRIZZLE   36  34  92 W8        30.08R WCI  30
ROME           CLOUDY    36  36 100 W7        30.08S WCI  30
ELMIRA         CLOUDY    40  31  70 NW7       30.07
BINGHAMTON     CLOUDY    34  31  88 N6        30.03R WCI  29
MONTICELLO     CLOUDY    36  34  93 W6        30.04R WCI  31
$$

NYZ026>034-041>043-087-191600-
NORTH


CITY           SKY/WX    TMP DP  RH WIND       PRES   REMARKS
WATERTOWN      CLOUDY    37  37 100 SW6       30.07R WCI  32
FORT DRUM      NOT AVBL
OGDENSBURG     CLOUDY    36  35  98 CALM      30.05R FOG
MASSENA        CLOUDY    36  34  92 SW7       30.05R WCI  30
SARANAC LAKE   CLOUDY    32  29  88 SW7       29.96R WCI  26
PLATTSBURGH    CLOUDY    36  33  89 CALM      30.01
$$

NYZ001>004-010>016-019>021-085-191600-
WEST


CITY           SKY/WX    TMP DP  RH WIND       PRES   REMARKS
NIAGARA FALLS  CLOUDY    36  32  85 SW6       30.09R FOG     WCI  31
BUFFALO        DRIZZLE   34  31  88 W10       30.09R FOG     WCI  26
DUNKIRK        CLOUDY    35  34  96 W7        30.11R WCI  29
JAMESTOWN      CLOUDY    34  30  86 W8        30.05S WCI  27
WELLSVILLE     CLOUDY    35  32  88 W7        30.04R WCI  29
ROCHESTER      DRIZZLE   36  33  89 W10       30.09S WCI  28
PENN YAN       CLOUDY    37  30  75 NW7       30.08R WCI  32
$$

             KEY
       WCI = WIND CHILL INDEX
       VSB = VISIBILITY
       HX  = HEAT INDEX
$$



USA.gov is the U.S. government's official web portal to all federal, state and local government web resources and services.